Portada
METAR-TAF:

METAR-TAF

Aeroports :

Cloquet/Carlton County Airport

Cloquet, Minnesota, Estats Units d'Amèrica

latitud: 46-42N, longitud: 092-30W, altitud: 390 m

Observació

L'informe es va fer fa 17 hores i 5 minuts, a les 07:21 UTC
Vent 8 kt del Nord-Oest
Temperatura -24°C
Humitat 63%
Pressió 1029 hPa
Visibilitat: 16.1 km
Cel clar

METAR: KCOQ 190721Z AUTO 32008KT 10SM CLR M24/M29 A3038 RMK AO2

Hora: 18:26 (00:26 UTC)


TAF: manca

Observacions i pronòstics meteorològics de més de 4000 aeroports (METAR i TAF).

Les estacions disponibles són els punts grocs i vermells al mapa.

Posi el ratolí al punt desitjat per veure el nom de l'estació.

Feu clic per veure les observacions i els pronòstics meteorològics.

Per canviar el mapa: feu clic els botons verds amb una creu de color negre per apropar; al botó verd amb un guió per allunyar la imatge; o en les fletxes verdes per a mapes adjacents.


METAR-TAF: